Date String (YYYY-MM-DD hh:mm:ss) UTC,Instrument flags,Ambient pressure (hPa),Sample flow (lpm),Bypass flow (lpm),Sample temperature (°C),Ambient temperature (°C),ASC tube jacket temperature (°C),LED temperature (°C),Box temperature (°C),Sample RH (%),Span deviation,Mass concentration (μg/m³),Mass concentration (μg/m³),Mass concentration (μg/m³)
DateTimeUTC,F1_M11,P_M11,Q1_M11,Q2_M11,T1_M11,T2_M11,T3_M11,T4_M11,T5_M11,U1_M11,ZSPAN_M11,X0_M11,X2_M11,X1_M11
2023-03-06 05:00:00,,0821.0,5.00,0.00,20.7,18.4,00.0,29.7,21.8,13.4,0000.0,0007.83,0003.30,0002.26
2023-03-06 05:01:00,,0821.1,5.02,0.00,20.7,19.2,00.0,29.7,22.0,13.4,0000.0,0007.85,0003.31,0002.25
2023-03-06 05:02:00,,0821.1,5.01,0.00,20.8,20.7,00.0,29.6,22.4,13.3,0000.0,0008.10,0003.32,0002.22
2023-03-06 05:03:00,,0821.1,4.96,0.00,21.0,21.8,00.0,29.7,22.8,13.2,0000.0,0008.50,0003.33,0002.22
2023-03-06 05:04:00,,0821.1,5.02,0.00,21.1,22.0,00.0,29.7,22.9,13.1,0000.0,0009.00,0003.32,0002.21
2023-03-06 05:05:00,,0821.1,5.01,0.00,21.1,21.0,00.0,29.8,22.6,13.1,0000.0,0009.61,0003.33,0002.22
2023-03-06 05:06:00,,0821.1,4.99,0.00,21.0,20.1,00.0,29.8,22.3,13.1,0000.0,0009.50,0003.32,0002.22
2023-03-06 05:07:00,,0821.1,5.00,0.00,20.8,19.4,00.0,29.8,22.0,13.2,0000.0,0008.91,0003.33,0002.23
2023-03-06 05:08:00,,0821.1,5.00,0.00,20.7,18.9,00.0,29.7,21.9,13.2,0000.0,0008.67,0003.32,0002.22
2023-03-06 05:09:00,,0821.1,5.01,0.00,20.6,18.5,00.0,29.7,21.8,13.3,0000.0,0008.52,0003.29,0002.21
2023-03-06 05:10:00,,0821.1,5.02,0.00,20.6,19.1,00.0,29.6,21.9,13.4,0000.0,0008.43,0003.27,0002.21
2023-03-06 05:11:00,,0821.1,4.98,0.00,20.8,20.6,00.0,29.6,22.4,13.3,0000.0,0008.35,0003.24,0002.20
2023-03-06 05:12:00,,0821.1,4.95,0.00,20.9,21.7,00.0,29.6,22.8,13.1,0000.0,0008.29,0003.24,0002.20
2023-03-06 05:13:00,,0821.1,5.03,0.00,21.1,22.0,00.0,29.7,22.9,13.0,0000.0,0008.06,0003.20,0002.20
2023-03-06 05:14:00,,0821.1,4.98,0.00,21.1,21.1,00.0,29.7,22.7,13.0,0000.0,0007.62,0003.19,0002.18
2023-03-06 05:15:00,,0821.1,5.02,0.00,21.0,20.2,00.0,29.7,22.3,13.0,0000.0,0007.78,0003.20,0002.18
2023-03-06 05:16:00,,0821.1,5.00,0.00,20.9,19.5,00.0,29.7,22.2,13.0,0000.0,0007.08,0003.20,0002.18
2023-03-06 05:17:00,,0821.1,5.00,0.00,20.8,19.0,00.0,29.7,22.0,13.0,0000.0,0007.24,0003.20,0002.18
2023-03-06 05:18:00,,0821.1,5.00,0.00,20.7,18.6,00.0,29.7,21.9,13.1,0000.0,0007.40,0003.20,0002.18
2023-03-06 05:19:00,,0821.2,5.01,0.00,20.6,19.1,00.0,29.6,21.9,13.2,0000.0,0007.27,0003.19,0002.20
2023-03-06 05:20:00,,0821.2,4.97,0.00,20.8,20.6,00.0,29.6,22.4,13.1,0000.0,0007.01,0003.18,0002.22
2023-03-06 05:21:00,,0821.2,5.01,0.00,20.9,21.7,00.0,29.6,22.8,13.1,0000.0,0007.02,0003.20,0002.24
2023-03-06 05:22:00,,0821.2,4.96,0.00,21.1,22.1,00.0,29.6,22.9,13.0,0000.0,0007.15,0003.23,0002.25
2023-03-06 05:23:00,,0821.2,5.02,0.00,21.1,21.2,00.0,29.7,22.7,13.0,0000.0,0008.20,0003.26,0002.28
2023-03-06 05:24:00,,0821.2,5.00,0.00,21.0,20.3,00.0,29.7,22.4,13.1,0000.0,0008.42,0003.33,0002.33
2023-03-06 05:25:00,,0821.1,5.00,0.00,20.9,19.6,00.0,29.7,22.2,13.2,0000.0,0008.55,0003.38,0002.37
2023-03-06 05:26:00,,0821.2,5.01,0.00,20.8,19.0,00.0,29.7,22.0,13.3,0000.0,0008.53,0003.42,0002.40
2023-03-06 05:27:00,,0821.2,5.01,0.00,20.7,18.7,00.0,29.7,21.8,13.4,0000.0,0009.06,0003.46,0002.43
2023-03-06 05:28:00,,0821.2,5.02,0.00,20.7,19.9,00.0,29.6,22.2,13.4,0000.0,0009.28,0003.49,0002.47
2023-03-06 05:29:00,,0821.3,4.98,0.00,20.9,21.2,00.0,29.6,22.6,13.3,0000.0,0009.33,0003.55,0002.50
2023-03-06 05:30:00,,0821.3,4.97,0.00,21.0,22.1,00.0,29.6,23.0,13.2,0000.0,0009.65,0003.57,0002.51
2023-03-06 05:31:00,,0821.2,5.01,0.00,21.1,21.8,00.0,29.7,22.9,13.1,0000.0,0009.67,0003.59,0002.51
2023-03-06 05:32:00,,0821.2,4.97,0.00,21.1,20.8,00.0,29.7,22.6,13.2,0000.0,0010.07,0003.59,0002.52
2023-03-06 05:33:00,,0821.2,5.00,0.00,21.0,20.0,00.0,29.8,22.4,13.2,0000.0,0010.16,0003.57,0002.52
2023-03-06 05:34:00,,0821.3,5.00,0.00,20.9,19.4,00.0,29.7,22.2,13.3,0000.0,0009.46,0003.55,0002.53
2023-03-06 05:35:00,,0821.3,5.00,0.00,20.8,18.9,00.0,29.7,22.0,13.4,0000.0,0009.50,0003.52,0002.52
2023-03-06 05:36:00,,0821.3,5.00,0.00,20.7,18.6,00.0,29.7,21.9,13.5,0000.0,0009.70,0003.51,0002.52
2023-03-06 05:37:00,,0821.4,5.01,0.00,20.7,19.8,00.0,29.6,22.1,13.5,0000.0,0009.80,0003.48,0002.52
2023-03-06 05:38:00,,0821.3,5.03,0.00,20.9,21.1,00.0,29.6,22.6,13.4,0000.0,0009.13,0003.45,0002.52
2023-03-06 05:39:00,,0821.4,5.01,0.00,21.0,22.0,00.0,29.6,22.9,13.2,0000.0,0008.83,0003.40,0002.49
2023-03-06 05:40:00,,0821.3,4.99,0.00,21.1,21.8,00.0,29.7,22.9,13.1,0000.0,0008.69,0003.37,0002.49
2023-03-06 05:41:00,,0821.3,4.99,0.00,21.1,20.9,00.0,29.7,22.6,13.1,0000.0,0008.59,0003.37,0002.50
2023-03-06 05:42:00,,0821.3,5.00,0.00,21.0,20.0,00.0,29.8,22.3,13.2,0000.0,0008.88,0003.37,0002.50
2023-03-06 05:43:00,,0821.3,5.00,0.00,20.9,19.4,00.0,29.7,22.1,13.3,0000.0,0008.51,0003.37,0002.50
2023-03-06 05:44:00,,0821.2,5.00,0.00,20.8,18.9,00.0,29.7,21.9,13.3,0000.0,0008.26,0003.35,0002.48
2023-03-06 05:45:00,,0821.3,5.00,0.00,20.7,19.1,00.0,29.7,21.9,13.3,0000.0,0007.99,0003.30,0002.45
2023-03-06 05:46:00,,0821.3,5.01,0.00,20.8,20.5,00.0,29.6,22.4,13.2,0000.0,0007.72,0003.28,0002.44
2023-03-06 05:47:00,,0821.3,5.00,0.00,21.0,21.6,00.0,29.6,22.8,13.1,0000.0,0007.65,0003.29,0002.42
2023-03-06 05:48:00,,0821.3,4.98,0.00,21.1,22.2,00.0,29.7,23.0,13.0,0000.0,0006.74,0003.30,0002.39
2023-03-06 05:49:00,,0821.4,5.00,0.00,21.1,21.4,00.0,29.7,22.8,12.9,0000.0,0006.75,0003.30,0002.36
2023-03-06 05:50:00,,0821.4,4.99,0.00,21.0,20.4,00.0,29.8,22.4,13.0,0000.0,0006.84,0003.31,0002.36
2023-03-06 05:51:00,,0821.3,5.00,0.00,20.9,19.7,00.0,29.8,22.2,13.0,0000.0,0006.92,0003.29,0002.33
2023-03-06 05:52:00,,0821.3,5.00,0.00,20.8,19.1,00.0,29.7,22.0,13.0,0000.0,0006.59,0003.25,0002.29
2023-03-06 05:53:00,,0821.3,5.00,0.00,20.7,18.7,00.0,29.7,21.8,13.1,0000.0,0005.94,0003.25,0002.28
2023-03-06 05:54:00,,0821.3,5.01,0.00,20.6,18.8,00.0,29.7,21.8,13.2,0000.0,0005.99,0003.23,0002.25
2023-03-06 05:55:00,,0821.3,4.99,0.00,20.8,20.2,00.0,29.6,22.3,13.1,0000.0,0006.40,0003.22,0002.22
2023-03-06 05:56:00,,0821.3,5.02,0.00,20.9,21.5,00.0,29.6,22.7,12.9,0000.0,0007.59,0003.25,0002.20
2023-03-06 05:57:00,,0821.3,4.99,0.00,21.1,22.1,00.0,29.7,23.0,12.8,0000.0,0007.79,0003.27,0002.16
2023-03-06 05:58:00,,0821.2,5.02,0.00,21.1,21.4,00.0,29.7,22.7,12.8,0000.0,0007.90,0003.23,0002.14
2023-03-06 05:59:00,,0821.3,4.96,0.00,21.0,20.4,00.0,29.7,22.5,12.8,0000.0,0007.92,0003.22,0002.14
